Hourly Weather Roundup
Issued by NWS Central Illinois

Home | Current Version | Previous Version | Text Only | Print | Product List | Glossary On
Versions: 1 2 3 4 5 6 7 8 9 10 11 12 13 14 15 16 17 18 19 20 21 22 23 24 25 26 27 28 29 30 31 32 33 34 35 36 37 38 39 40 41 42 43 44 45 46 47 48 49 50
000
NZUS43 KILX 291910
HWRILX

Area Weather Roundup
National Weather Service Lincoln IL
200 PM CDT SAT APR 29 2017

NOTE:  "FAIR" indicates few or no clouds below 12,000 feet, with
       no sigificant weather and/or obstructions to visibility.


CITY           SKY/WX    TMP DP  RH WIND       PRES   REMARKS
Bloomington    RAIN      45  43  93 NE26      30.02F FOG
Champaign      CLOUDY    56  53  90 NE18      29.99R
Danville       CLOUDY    55  55  97 NE12      29.98F FOG
Decatur        CLOUDY    55  55 100 E18       29.95S
Effingham      CLOUDY    68  68 100 E8        29.95S
Flora          CLOUDY    76  67  73 SE16G23   29.92R
Galesburg      TSTM      42  40  93 NE15      30.05R WCI  34
Jacksonville   TSTM      49  48  97 NE23      29.89F
Lacon          RAIN      42  40  93 NE18G28   30.06R WCI  33
Lawrenceville  CLOUDY    77  65  66 SE18G26   29.94F
Litchfield     CLOUDY    60  60  99 E12       29.87F FOG
$$


CITY           SKY/WX    TMP DP  RH WIND       PRES   REMARKS
Lincoln        CLOUDY    49  49  99 NE20G28   29.96F
Macomb         TSTM      44  42  96 NE21      30.03F WCI  35
Mattoon        CLOUDY    61  60  97 E7        29.95F
Mt Carmel AP   PTSUNNY   78  64  62 SE21G28   29.93F
Olney-Noble AP PTSUNNY   76  68  77 SE15G24   29.93S
Paris AP       CLOUDY    62  62  99 E10       29.99S FOG
Peoria         LGT RAIN  45  44  97 NE17G26   30.02R FOG
Pontiac        LGT RAIN  46  45  99 NE22      30.09R
Rantoul        CLOUDY    54  52  94 NE16G25   30.01R
Robinson       PTSUNNY   76  66  72 SE15      29.95F
Springfield    TSTM      52  50  93 E16       29.92F FOG
Taylorville    CLOUDY    55  55  99 E12G21    29.91F FOG
$$

...REGIONAL REPORTS...


CITY           SKY/WX    TMP DP  RH WIND       PRES   REMARKS
Chicago O`Hare LGT RAIN  40  36  86 N21G31    30.16F FOG     WCI  30
Kankakee       CLOUDY    44  42  93 NE14G23   30.09R
Moline         RAIN      43  39  86 NE20G28   30.07S WCI  34
Mount Sterling RAIN      46  45  98 NE23      29.86F
Mount Vernon   PTSUNNY   76  68  76 SE13G18   29.90S
Pittsfield     CLOUDY    49  49  98 NE13G25   29.86F THUNDER
Quincy         TSTM      46  45  96 NE24G32   29.92R VSB 3/4
Rockford       LGT RAIN  43  36  76 NE17G28   30.16F
$$


CITY           SKY/WX    TMP DP  RH WIND       PRES   REMARKS
Burlington     HVY RAIN  42  42 100 NE17      30.02R FOG     WCI  34
Cedar Rapids   LGT RAIN  43  41  93 NE14      30.12R FOG
Des Moines     LGT RAIN  44  41  89 NE18      30.09F
Kirksville     RAIN      43  30  60 NE18      29.99S WCI  35
Ottumwa        RAIN      43  42  97 NE15      30.06F FOG
St Louis       CLOUDY    66  62  87 SE13      29.81F
$$


CITY           SKY/WX    TMP DP  RH WIND       PRES   REMARKS
Terre Haute    CLOUDY    72  65  78 E12       29.96F
Evansville     MOSUNNY   80  67  64 SE9G20    29.93F HX  82
Indianapolis   CLOUDY    71  63  75 SE9       30.01F
Lafayette      CLOUDY    56  55  97 NE12      30.04F
Madison        CLOUDY    45  33  63 E13G22    30.25R
Milwaukee      CLOUDY    41  32  70 N15G31    30.27S WCI  33
$$





USA.gov is the U.S. government's official web portal to all federal, state and local government web resources and services.